Location: Unspecified
(43.4680°N, 87.1740°E)
Time: 21:22:22
(UTC+00:00)

Cosmos 1190 Rocket - Pass Details

Date: 17 April 2021
Orbit: 757 x 779 km, 74.1° (Epoch: 11 May)

Event Time Altitude Azimuth Distance (km) Brightness Sun altitude
Exits shadow 15:44:39 70° 53° (NE) 817 4.0 -26.4°
Drops below altitude 10° 15:49:20 10° 23° (NNE) 2,304 6.8 -27.0°
Sets 15:51:43 0° 22° (NNE) 3,232 7.6 -27.2°
